Location: El Centro
(32.7920°N, 115.5620°W)
Time: 17:39:38
(UTC-08:00)

Amateur Radio Satellites - All Passes

Search period start: 22 December 2014 17:09
Search period end: 23 December 2014 17:09
Location: El Centro, 32.7920°N, 115.5620°W

Satellite Date Start Highest point End Downlink Frequencies (MHz)
Time Altitude Azimuth
MaSat-1 22 Dec 17:13:18 17:15:26 26° 65° (ENE) 17:17:41 437.345
CUBESAT XI-V 22 Dec 17:20:34 17:23:00 14° 93° (E) 17:25:26 437.345
PRISM 22 Dec 17:21:07 17:24:45 29° 98° (E) 17:28:20 437.425
MOZHAYETS 4 22 Dec 17:27:06 17:30:55 26° 289° (WNW) 17:34:44
RS-15 22 Dec 17:39:42 17:45:54 16° 30° (NNE) 17:52:12 29.354- 29.394
JAS-2 22 Dec 17:49:10 17:53:16 15° 267° (W) 17:57:15 435.910
Cubesat XI-IV 22 Dec 17:58:05 18:02:59 37° 261° (W) 18:07:54 437.490
GONETS M04 22 Dec 18:03:26 18:09:25 21° 278° (W) 18:15:25
DANDE 22 Dec 18:08:12 18:10:11 11° 66° (ENE) 18:12:13 436.750
STRAND 1 22 Dec 18:24:01 18:29:04 63° 101° (ESE) 18:34:06 437.568
CUTE-I 22 Dec 18:32:16 18:35:48 18° 266° (W) 18:39:20 437.470
SO-50 22 Dec 18:42:04 18:44:54 17° 108° (ESE) 18:47:48 436.795
CUSAT 1 22 Dec 18:44:24 18:51:04 27° 73° (ENE) 18:57:54 437.405
ISS 22 Dec 18:49:13 18:51:57 24° 37° (NE) 18:54:39 145.825
CUBESAT XI-V 22 Dec 18:56:15 19:00:35 42° 286° (WNW) 19:04:54 437.345
PRISM 22 Dec 18:57:20 19:00:00 17° 291° (WNW) 19:02:40 437.425
CANX-2 22 Dec 19:07:18 19:10:36 22° 71° (ENE) 19:13:54 2200.000
BRITE-PL 22 Dec 19:19:17 19:22:55 30° 73° (ENE) 19:26:32 437.365/2234.400
HO-68 22 Dec 19:22:04 19:28:59 53° 70° (ENE) 19:35:53 435.675
COMPASS 1 22 Dec 19:22:21 19:25:32 21° 70° (ENE) 19:28:44 437.405
SEEDS 22 Dec 19:30:34 19:34:20 32° 73° (ENE) 19:38:07 437.485
GOMX 1 22 Dec 19:33:42 19:37:19 30° 72° (ENE) 19:40:57 467.674
CUTE 1.7 + AOD 2 22 Dec 19:36:53 19:40:57 45° 74° (ENE) 19:45:03 437.475
DANDE 22 Dec 19:46:37 19:54:45 65° 80° (E) 20:03:21 436.750
DOVE 4 22 Dec 19:47:50 19:51:29 31° 72° (ENE) 19:55:12 437.250
RS-15 22 Dec 19:50:18 20:01:26 57° 57° (ENE) 20:13:01 29.354- 29.394
CINEMA 3 22 Dec 19:55:50 19:59:02 22° 70° (ENE) 20:02:19 145.822/145.860
UWE-3 22 Dec 19:58:13 19:59:34 11° 66° (ENE) 20:00:56 435.000/436.395/437.385
DX 1 22 Dec 20:04:15 20:07:35 22° 70° (ENE) 20:10:54 434.975-435.025
STRAND 1 22 Dec 20:05:31 20:07:40 13° 296° (WNW) 20:09:49 437.568
AAUSAT CUBESAT 2 22 Dec 20:19:35 20:23:47 85° 258° (WSW) 20:28:02 437.432
SO-50 22 Dec 20:20:50 20:25:03 39° 303° (WNW) 20:29:24 436.795
AISAT 22 Dec 20:21:18 20:21:25 10° 65° (ENE) 20:21:32 437.250
Oscar 11 22 Dec 20:21:32 20:25:40 46° 74° (ENE) 20:29:49 145.826/435.025
ISS 22 Dec 20:25:45 20:28:27 24° 231° (SW) 20:31:08 145.825
CUSAT 1 22 Dec 20:26:24 20:34:27 62° 266° (W) 20:42:43 437.405
UKube-1 22 Dec 20:31:42 20:35:49 45° 74° (ENE) 20:39:57 .
CANX-2 22 Dec 20:42:55 20:46:22 24° 264° (W) 20:49:52 2200.000
BEESAT 3 22 Dec 20:46:58 20:50:21 24° 55° (NE) 20:53:42 437.485
COMPASS 1 22 Dec 20:57:37 21:01:05 25° 264° (W) 21:04:34 437.405
DELFI C3 22 Dec 20:58:17 21:02:23 73° 259° (W) 21:06:30 145.870
ZACube-1 22 Dec 20:58:25 21:02:28 53° 75° (ENE) 21:06:37 437.345
CUBEBUG 2 22 Dec 20:58:29 21:02:38 78° 77° (ENE) 21:06:54 437.445
BRITE-PL 22 Dec 20:59:00 21:01:30 15° 265° (W) 21:03:58 437.365/2234.400
50 SAT 22 Dec 20:59:23 21:02:30 22° 71° (ENE) 21:05:38 437.505
SEEDS 22 Dec 21:07:32 21:10:11 16° 266° (W) 21:12:51 437.485
AIST 2 22 Dec 21:08:24 21:11:15 17° 52° (NE) 21:14:04 435.215
VELOX 1 22 Dec 21:08:47 21:12:51 37° 73° (ENE) 21:16:56 145.980
HO-68 22 Dec 21:11:19 21:16:52 24° 264° (W) 21:22:28 435.675
TIGRISAT 22 Dec 21:12:50 21:15:03 13° 93° (E) 21:17:14 435.000
GOMX 1 22 Dec 21:13:03 21:15:31 15° 266° (W) 21:17:58 467.674
CUTE 1.7 + AOD 2 22 Dec 21:15:44 21:17:04 11° 268° (W) 21:18:24 437.475
ESTCUBE 1 22 Dec 21:21:13 21:24:31 20° 69° (ENE) 21:27:49 437.505/2401.250
FUNcube-1 22 Dec 21:24:17 21:28:25 72° 259° (WSW) 21:32:41 145.935
DOVE 4 22 Dec 21:27:00 21:29:21 15° 266° (W) 21:31:43 437.250
BEESAT 2 22 Dec 21:28:36 21:32:44 62° 61° (ENE) 21:36:48 435.950
QB50P2 22 Dec 21:28:52 21:29:58 11° 93° (E) 21:31:04 145.880/145.840
DANDE 22 Dec 21:31:18 21:37:42 26° 273° (W) 21:44:21 436.750
UWE-3 22 Dec 21:31:37 21:35:37 46° 261° (W) 21:39:44 435.000/436.395/437.385
CINEMA 3 22 Dec 21:32:54 21:36:08 22° 265° (W) 21:39:26 145.822/145.860
POLYITAN 1 22 Dec 21:37:24 21:39:48 15° 94° (E) 21:42:12 437.675
NANOSAT C BR1 22 Dec 21:37:28 21:39:45 14° 94° (E) 21:42:03 145.865
HUMSAT D 22 Dec 21:39:57 21:44:04 83° 258° (WSW) 21:48:16 437.325/437.525
DX 1 22 Dec 21:40:04 21:43:39 25° 263° (W) 21:47:15 434.975-435.025
UNISAT 6 22 Dec 21:41:41 21:45:49 29° 97° (E) 21:49:54 437.425
PCSat 22 Dec 21:42:20 21:47:13 33° 58° (ENE) 21:52:03 145.827
CUBEBUG 1 22 Dec 21:50:12 21:54:16 39° 73° (ENE) 21:58:19 437.445
QB50P1 22 Dec 21:51:27 21:54:44 21° 96° (E) 21:58:01 145.935-145.965
AISAT 22 Dec 21:53:07 21:57:28 60° 259° (W) 22:01:50 437.250
Oscar 11 22 Dec 22:00:31 22:02:01 12° 267° (W) 22:03:31 145.826/435.025
RS-15 22 Dec 22:03:20 22:13:18 36° 254° (WSW) 22:23:40 29.354- 29.394
UKube-1 22 Dec 22:10:31 22:12:09 12° 266° (W) 22:13:47 .
ANTELSAT 22 Dec 22:13:23 22:18:07 70° 101° (ESE) 22:22:48 437.575/2403.000
POPSAT HIP 1 22 Dec 22:19:46 22:23:54 48° 100° (E) 22:28:03 437.405
BEESAT 3 22 Dec 22:25:04 22:28:25 24° 249° (WSW) 22:31:43 437.485
BUGSAT 1 22 Dec 22:33:10 22:37:10 55° 101° (E) 22:41:11 437.445
50 SAT 22 Dec 22:34:33 22:37:35 21° 264° (W) 22:40:39 437.505
TISAT 1 22 Dec 22:36:45 22:40:25 30° 72° (ENE) 22:44:05 437.305
AIST 2 22 Dec 22:46:03 22:50:00 38° 247° (WSW) 22:53:53 435.215
DUCHIFAT 1 22 Dec 22:46:21 22:50:37 77° 283° (WNW) 22:54:52 145.980
VELOX 1 22 Dec 22:47:01 22:49:31 15° 266° (W) 22:52:02 145.980
TIGRISAT 22 Dec 22:47:25 22:51:58 49° 286° (WNW) 22:56:30 435.000
SPROUT 22 Dec 22:48:07 22:52:04 38° 73° (ENE) 22:56:02 437.525
ESTCUBE 1 22 Dec 22:57:10 23:01:09 30° 262° (W) 23:05:08 437.505/2401.250
QB50P2 22 Dec 23:01:57 23:06:04 47° 286° (WNW) 23:10:11 145.880/145.840
YUBILEINY 22 Dec 23:04:20 23:13:01 73° 93° (E) 23:21:41 435.215
O/OREOS (USA 219) 22 Dec 23:05:59 23:10:07 39° 104° (ESE) 23:14:16 437.305
NANOSAT C BR1 22 Dec 23:11:47 23:15:42 36° 287° (WNW) 23:19:38 145.865
POLYITAN 1 22 Dec 23:11:52 23:15:49 36° 287° (WNW) 23:19:46 437.675
UNISAT 6 22 Dec 23:18:44 23:22:23 23° 290° (WNW) 23:26:01 437.425
BEESAT 22 Dec 23:22:11 23:24:50 15° 66° (ENE) 23:27:29 436.000
PCSat 22 Dec 23:25:57 23:30:26 27° 253° (WSW) 23:34:53 145.827
QB50P1 22 Dec 23:27:03 23:30:31 25° 289° (WNW) 23:33:59 145.935-145.965
CUBEBUG 1 22 Dec 23:28:31 23:30:44 14° 266° (W) 23:32:58 437.445
ANTELSAT 22 Dec 23:54:04 23:54:15 10° 295° (WNW) 23:54:27 437.575/2403.000
POPSAT HIP 1 22 Dec 23:57:53 23:59:20 12° 293° (WNW) 00:00:48 437.405
TISAT 1 23 Dec 00:13:31 00:16:14 17° 265° (W) 00:18:57 437.305
VERMONT LUNAR 23 Dec 00:20:34 00:23:48 34° 146° (SSE) 00:27:02 437.305
AUBIESAT-1 23 Dec 00:22:31 00:26:52 35° 67° (ENE) 00:31:17 437.475
SPROUT 23 Dec 00:26:08 00:28:15 14° 266° (W) 00:30:23 437.525
SWISSCUBE 23 Dec 00:32:56 00:37:44 82° 257° (WSW) 00:42:33 437.505
ITUPSAT 1 23 Dec 00:34:30 00:39:18 88° 257° (WSW) 00:44:08 437.325
O/OREOS (USA 219) 23 Dec 00:47:01 00:49:39 15° 299° (WNW) 00:52:17 437.305
PHONESAT 2.4 23 Dec 00:47:05 00:50:25 35° 146° (SSE) 00:53:46 2401.200-2431.200
M-CUBED/EXP-1 PRIME 23 Dec 00:49:35 00:54:23 77° 72° (ENE) 00:59:18 437.505
BEESAT 23 Dec 00:57:38 01:02:14 47° 260° (W) 01:06:51 436.000
Oscar 19 23 Dec 01:01:19 01:06:28 62° 101° (E) 01:11:35 437.125/150
YUBILEINY 23 Dec 01:04:37 01:10:31 20° 290° (WNW) 01:16:27 435.215
STARS 23 Dec 01:09:48 01:13:25 26° 71° (ENE) 01:17:03 437.465
KKS-1 23 Dec 01:18:31 01:22:48 52° 74° (ENE) 01:27:07 437.445
ITAMSAT 1 23 Dec 01:23:17 01:27:58 34° 98° (E) 01:32:37 435.822/435.867
Gurwin Techsat 1B 23 Dec 01:34:08 01:38:34 26° 96° (E) 01:42:57 435.225
AUBIESAT-1 23 Dec 01:58:05 02:01:46 22° 261° (W) 02:05:30 437.475
VERMONT LUNAR 23 Dec 01:58:40 02:02:03 43° 340° (NNW) 02:05:26 437.305
PHONESAT 2.4 23 Dec 02:25:35 02:29:04 43° 341° (NNW) 02:32:33 2401.200-2431.200
Oscar 19 23 Dec 02:42:48 02:45:13 13° 295° (WNW) 02:47:37 437.125/150
AO-7 23 Dec 02:43:03 02:49:21 23° 96° (E) 02:55:36 29.400- 29.500
HORYU 2 23 Dec 02:46:16 02:50:43 54° 101° (E) 02:55:06 437.375
STARS 23 Dec 02:46:28 02:49:48 21° 264° (W) 02:53:10 437.465
MOZHAYETS 4 23 Dec 02:49:14 02:51:39 14° 67° (ENE) 02:54:04
KKS-1 23 Dec 02:58:48 02:59:41 11° 267° (W) 03:00:34 437.445
ITAMSAT 1 23 Dec 03:03:12 03:07:12 23° 292° (WNW) 03:11:13 435.822/435.867
GONETS M04 23 Dec 03:09:23 03:12:56 13° 78° (ENE) 03:16:28
Gurwin Techsat 1B 23 Dec 03:13:51 03:18:26 31° 290° (WNW) 03:23:00 435.225
AIST 1 23 Dec 03:20:48 03:24:58 54° 267° (W) 03:29:05
VERMONT LUNAR 23 Dec 03:38:01 03:40:52 22° 357° (N) 03:43:43 437.305
PHONESAT 2.4 23 Dec 04:05:18 04:08:16 23° 357° (N) 04:11:15 2401.200-2431.200
PRISM 23 Dec 04:09:11 04:11:17 14° 67° (ENE) 04:13:24 437.425
MOZHAYETS 4 23 Dec 04:23:58 04:28:25 46° 261° (W) 04:32:55
HORYU 2 23 Dec 04:25:18 04:26:51 12° 294° (WNW) 04:28:23 437.375
AO-7 23 Dec 04:34:17 04:42:31 64° 291° (WNW) 04:50:42 29.400- 29.500
Cubesat XI-IV 23 Dec 04:42:26 04:44:19 12° 92° (E) 04:46:11 437.490
SO-50 23 Dec 04:56:06 05:00:55 55° 59° (ENE) 05:05:43 436.795
GONETS M04 23 Dec 04:59:31 05:08:22 87° 95° (E) 05:17:14
JAS-2 23 Dec 05:00:50 05:06:15 74° 285° (WNW) 05:11:23 435.910
CUTE-I 23 Dec 05:12:40 05:17:03 26° 97° (E) 05:21:24 437.470
VERMONT LUNAR 23 Dec 05:16:35 05:19:47 31° 14° (NNE) 05:22:58 437.305
STRAND 1 23 Dec 05:35:30 05:40:30 57° 74° (ENE) 05:45:30 437.568
PRISM 23 Dec 05:42:27 05:46:25 40° 261° (W) 05:50:24 437.425
PHONESAT 2.4 23 Dec 05:44:15 05:47:34 33° 15° (NNE) 05:50:52 2401.200-2431.200
CUBESAT XI-V 23 Dec 05:54:51 05:59:31 75° 258° (WSW) 06:04:10 437.345
Cubesat XI-IV 23 Dec 06:19:29 06:24:45 65° 286° (WNW) 06:30:00 437.490
AO-7 23 Dec 06:31:47 06:33:39 11° 309° (NW) 06:35:31 29.400- 29.500
SO-50 23 Dec 06:38:29 06:40:58 14° 253° (WSW) 06:43:27 436.795
CUTE-I 23 Dec 06:52:24 06:57:03 32° 290° (WNW) 07:01:41 437.470
VERMONT LUNAR 23 Dec 06:54:45 06:58:14 63° 210° (SSW) 07:01:43 437.305
HO-68 23 Dec 06:59:56 07:00:32 10° 91° (E) 07:01:08 435.675
GONETS M04 23 Dec 07:01:16 07:06:12 16° 292° (WNW) 07:11:09
STRAND 1 23 Dec 07:17:43 07:19:57 13° 267° (W) 07:22:12 437.568
PHONESAT 2.4 23 Dec 07:22:48 07:26:23 61° 210° (SSW) 07:29:58 2401.200-2431.200
BRITE-PL 23 Dec 07:27:59 07:31:13 17° 95° (E) 07:34:35 437.365/2234.400
CUTE 1.7 + AOD 2 23 Dec 07:29:13 07:30:35 11° 92° (E) 07:31:56 437.475
GOMX 1 23 Dec 07:39:50 07:42:54 16° 95° (E) 07:46:04 467.674
DOVE 4 23 Dec 07:51:39 07:54:36 16° 94° (E) 07:57:35 437.250
CUSAT 1 23 Dec 07:52:51 07:55:14 16° 83° (E) 07:58:00 437.405
MaSat-1 23 Dec 07:59:01 08:00:25 15° 296° (WNW) 08:01:49 437.345
AAUSAT CUBESAT 2 23 Dec 08:08:27 08:11:42 21° 96° (E) 08:14:56 437.432
Oscar 11 23 Dec 08:15:35 08:17:13 12° 93° (E) 08:18:52 145.826/435.025
UKube-1 23 Dec 08:26:46 08:27:42 11° 93° (E) 08:28:37 .
CANX-2 23 Dec 08:32:00 08:36:20 81° 102° (ESE) 08:40:37 2200.000
UNISAT 6 23 Dec 08:38:04 08:40:36 15° 67° (ENE) 08:43:10 437.425
HO-68 23 Dec 08:41:50 08:49:01 83° 105° (ESE) 08:56:09 435.675
DELFI C3 23 Dec 08:44:08 08:47:19 21° 96° (E) 08:50:28 145.870
COMPASS 1 23 Dec 08:45:11 08:49:26 74° 101° (ESE) 08:53:39 437.405
ZACube-1 23 Dec 08:52:47 08:55:37 16° 94° (E) 08:58:27 437.345
CUBEBUG 2 23 Dec 08:54:28 08:58:20 25° 96° (E) 09:02:14 437.445
SEEDS 23 Dec 08:54:56 08:59:12 68° 284° (WNW) 09:03:25 437.485
DANDE 23 Dec 08:57:48 09:01:11 88° 277° (W) 09:05:45 436.750
CUTE 1.7 + AOD 2 23 Dec 09:02:34 09:06:41 46° 286° (WNW) 09:10:47 437.475
BRITE-PL 23 Dec 09:05:06 09:09:45 44° 286° (WNW) 09:14:44 437.365/2234.400
VELOX 1 23 Dec 09:07:27 09:07:40 10° 93° (E) 09:07:54 145.980
ANTELSAT 23 Dec 09:08:38 09:12:35 34° 72° (ENE) 09:16:39 437.575/2403.000
POPSAT HIP 1 23 Dec 09:09:27 09:12:36 21° 70° (ENE) 09:15:46 437.405
GOMX 1 23 Dec 09:16:21 09:21:05 47° 285° (WNW) 09:26:05 467.674
FUNcube-1 23 Dec 09:17:31 09:21:35 31° 97° (E) 09:25:39 145.935
BUGSAT 1 23 Dec 09:20:06 09:23:13 21° 71° (ENE) 09:26:18 437.445
O/OREOS (USA 219) 23 Dec 09:20:09 09:24:21 37° 67° (ENE) 09:28:33 437.305
YUBILEINY 23 Dec 09:20:56 09:28:07 28° 74° (ENE) 09:35:17 435.215
UWE-3 23 Dec 09:25:44 09:30:14 48° 99° (E) 09:34:45 435.000/436.395/437.385
JUGNU 23 Dec 09:26:00 09:29:28 16° 167° (SSE) 09:32:57 437.505
DOVE 4 23 Dec 09:27:42 09:32:26 48° 285° (WNW) 09:37:24 437.250
HUMSAT D 23 Dec 09:29:36 09:33:04 23° 96° (E) 09:36:31 437.325/437.525
CINEMA 3 23 Dec 09:30:34 09:35:25 76° 283° (WNW) 09:40:24 145.822/145.860
DX 1 23 Dec 09:32:03 09:36:24 77° 102° (ESE) 09:40:44 434.975-435.025
CUSAT 1 23 Dec 09:34:50 09:37:53 24° 290° (WNW) 09:41:43 437.405
DUCHIFAT 1 23 Dec 09:34:56 09:38:53 42° 74° (ENE) 09:42:51 145.980
TIGRISAT 23 Dec 09:41:45 09:46:04 86° 77° (ENE) 09:50:33 435.000
AAUSAT CUBESAT 2 23 Dec 09:43:51 09:47:16 24° 289° (WNW) 09:50:38 437.432
CUBEBUG 1 23 Dec 09:46:56 09:47:20 10° 93° (E) 09:47:43 437.445
AISAT 23 Dec 09:48:53 09:52:59 36° 99° (E) 09:57:05 437.250
Oscar 11 23 Dec 09:49:24 09:53:34 45° 286° (WNW) 09:57:42 145.826/435.025
QB50P2 23 Dec 09:50:31 09:54:42 70° 76° (ENE) 09:58:55 145.880/145.840
UKube-1 23 Dec 09:59:53 10:04:04 50° 286° (WNW) 10:08:14 .
NANOSAT C BR1 23 Dec 09:59:54 10:04:06 89° 258° (WSW) 10:08:19 145.865
POLYITAN 1 23 Dec 10:00:28 10:04:40 87° 257° (WSW) 10:08:54 437.675
RS-15 23 Dec 10:08:12 10:18:47 56° 111° (ESE) 10:29:17 29.354- 29.394
UNISAT 6 23 Dec 10:12:56 10:16:59 38° 262° (W) 10:21:10 437.425
QB50P1 23 Dec 10:14:58 10:19:06 57° 259° (W) 10:23:15 145.935-145.965
50 SAT 23 Dec 10:17:59 10:22:08 73° 102° (ESE) 10:26:16 437.505
DELFI C3 23 Dec 10:19:14 10:22:27 22° 289° (WNW) 10:25:38 145.870
ZACube-1 23 Dec 10:27:49 10:32:03 38° 287° (WNW) 10:36:18 437.345
CUBEBUG 2 23 Dec 10:30:59 10:34:54 27° 289° (WNW) 10:38:52 437.445
HO-68 23 Dec 10:31:52 10:35:48 16° 301° (WNW) 10:39:44 435.675
SRMSAT 23 Dec 10:35:47 10:38:47 14° 165° (SSE) 10:41:48 437.500
BEESAT 3 23 Dec 10:39:15 10:40:59 12° 108° (ESE) 10:42:43 437.485
VELOX 1 23 Dec 10:40:11 10:44:30 54° 285° (WNW) 10:48:49 145.980
POPSAT HIP 1 23 Dec 10:44:54 10:48:20 24° 263° (W) 10:51:47 437.405
ANTELSAT 23 Dec 10:46:45 10:49:28 16° 266° (W) 10:52:14 437.575/2403.000
ESTCUBE 1 23 Dec 10:53:53 10:58:23 80° 102° (ESE) 11:02:52 437.505/2401.250
FUNcube-1 23 Dec 10:54:20 10:57:40 20° 290° (WNW) 11:01:01 145.935
BUGSAT 1 23 Dec 10:55:21 10:58:34 22° 263° (W) 11:01:46 437.445
O/OREOS (USA 219) 23 Dec 11:00:41 11:03:23 16° 260° (W) 11:06:06 437.305
UWE-3 23 Dec 11:03:55 11:06:19 14° 293° (WNW) 11:08:44 435.000/436.395/437.385
HUMSAT D 23 Dec 11:05:14 11:08:44 24° 289° (WNW) 11:12:13 437.325/437.525
JUGNU 23 Dec 11:13:19 11:17:53 23° 176° (S) 11:22:27 437.505
DUCHIFAT 1 23 Dec 11:13:25 11:14:54 12° 267° (W) 11:16:23 145.980
YUBILEINY 23 Dec 11:16:51 11:25:09 52° 270° (W) 11:33:28 435.215
CUBEBUG 1 23 Dec 11:19:43 11:23:55 52° 285° (WNW) 11:28:08 437.445
BEESAT 2 23 Dec 11:19:49 11:23:32 35° 113° (ESE) 11:27:19 435.950
ISS 23 Dec 11:26:20 11:29:38 85° 132° (SE) 11:32:56 145.825
AISAT 23 Dec 11:26:30 11:29:17 17° 292° (WNW) 11:32:04 437.250
TISAT 1 23 Dec 12:01:14 12:05:27 76° 284° (WNW) 12:09:41 437.305
Oscar 19 23 Dec 12:13:44 12:18:45 56° 74° (ENE) 12:23:48 437.125/150
BEESAT 3 23 Dec 12:14:50 12:18:42 42° 302° (WNW) 12:22:39 437.485
SPROUT 23 Dec 12:15:02 12:19:15 55° 285° (WNW) 12:23:27 437.525
PCSat 23 Dec 12:19:00 12:24:22 75° 113° (ESE) 12:29:48 145.827
RS-15 23 Dec 12:21:34 12:31:24 38° 311° (NW) 12:41:21 29.354- 29.394
SRMSAT 23 Dec 12:22:52 12:27:20 22° 175° (S) 12:31:48 437.500
ITAMSAT 1 23 Dec 12:37:05 12:41:41 33° 71° (ENE) 12:46:17 435.822/435.867
SWISSCUBE 23 Dec 12:38:16 12:42:38 36° 99° (E) 12:46:59 437.505
AIST 2 23 Dec 12:39:47 12:43:56 60° 300° (WNW) 12:48:11 435.215
ITUPSAT 1 23 Dec 12:40:07 12:44:26 34° 98° (E) 12:48:44 437.325
Gurwin Techsat 1B 23 Dec 12:51:03 12:55:28 28° 69° (ENE) 12:59:55 435.225
BEESAT 2 23 Dec 12:59:06 13:01:52 17° 308° (NW) 13:04:39 435.950
JUGNU 23 Dec 13:01:55 13:06:19 21° 187° (S) 13:10:43 437.505
BEESAT 23 Dec 13:02:20 13:07:03 63° 101° (ESE) 13:11:45 436.000
ISS 23 Dec 13:05:33 13:06:36 11° 331° (NNW) 13:07:38 145.825
KKS-1 23 Dec 13:15:42 13:18:14 15° 94° (E) 13:20:45 437.445
AO-7 23 Dec 13:38:02 13:44:06 23° 59° (ENE) 13:50:11 29.400- 29.500
HORYU 2 23 Dec 13:40:52 13:44:43 29° 71° (ENE) 13:48:35 437.375
AUBIESAT-1 23 Dec 13:44:41 13:48:38 49° 104° (ESE) 13:52:15 437.475
Oscar 19 23 Dec 13:56:01 13:58:22 13° 267° (W) 14:00:44 437.125/150
PCSat 23 Dec 14:05:39 14:08:20 14° 310° (NW) 14:11:03 145.827
SRMSAT 23 Dec 14:11:26 14:15:56 22° 185° (S) 14:20:25 437.500
M-CUBED/EXP-1 PRIME 23 Dec 14:12:44 14:16:49 59° 289° (WNW) 14:20:32 437.505
SWISSCUBE 23 Dec 14:16:55 14:20:11 19° 292° (WNW) 14:23:27 437.505
ITAMSAT 1 23 Dec 14:17:06 14:21:09 23° 264° (W) 14:25:13 435.822/435.867
ITUPSAT 1 23 Dec 14:18:38 14:22:03 20° 292° (WNW) 14:25:27 437.325
Gurwin Techsat 1B 23 Dec 14:30:43 14:35:17 29° 263° (W) 14:39:53 435.225
STARS 23 Dec 14:39:42 14:44:09 83° 284° (WNW) 14:48:36 437.465
BEESAT 23 Dec 14:42:58 14:44:18 11° 295° (WNW) 14:45:37 436.000
RS-15 23 Dec 14:46:01 14:48:26 11° 342° (NNW) 14:50:52 29.354- 29.394
KKS-1 23 Dec 14:50:48 14:54:58 39° 287° (WNW) 14:59:07 437.445
JUGNU 23 Dec 14:52:06 14:54:42 13° 196° (SSW) 14:57:17 437.505
JAS-2 23 Dec 15:06:42 15:13:15 33° 69° (ENE) 15:19:20 435.910
GONETS M04 23 Dec 15:16:07 15:23:53 35° 75° (ENE) 15:31:33
HORYU 2 23 Dec 15:18:04 15:21:20 20° 264° (W) 15:24:38 437.375
AUBIESAT-1 23 Dec 15:22:19 15:23:00 10° 300° (WNW) 15:23:40 437.475
AO-7 23 Dec 15:27:49 15:36:05 70° 255° (WSW) 15:44:26 29.400- 29.500
AIST 1 23 Dec 15:45:25 15:49:47 75° 277° (W) 15:54:09
Cubesat XI-IV 23 Dec 16:00:12 16:02:52 14° 64° (ENE) 16:05:33 437.490
SRMSAT 23 Dec 16:01:18 16:04:28 15° 194° (SSW) 16:07:37 437.500
MOZHAYETS 4 23 Dec 16:23:37 16:28:10 58° 100° (E) 16:32:40
CUTE-I 23 Dec 16:30:24 16:34:52 28° 69° (ENE) 16:39:19 437.470
JAS-2 23 Dec 16:50:51 16:58:02 42° 261° (W) 17:04:42 435.910
